�ϑ��_��,����,�C��[��],�C�� �i�����,���x[%RH],���x �i�����,���n�C��[hPa],���n�C�� �i�����,�C�ʋC��[hPa],�C�ʋC�� �i�����,����[m/s],���� �i�����,����,���� �i�����,�ő�u�ԕ���[m/s],�ő�u�ԕ��� �i�����,�ő�u�ԕ���������,�ő�u�ԕ��������� �i�����,����[W/�u],���� �i�����,���J,���J �i�����,1���ԉJ��[mm/h],1���ԉJ�� �i�����,�ϐ��[cm],�ϐ�� �i�����,�~���[cm/h],�~��� �i�����,����[m],���� �i�����,���ʕω�,���ʕω� �i�����
�k�C���X�y�[�X�|�[�g(�����),2023/07/01 01:00:00,16.5,0,100,2,993.7,0,996.5,0,1.8,0,�k��,0,4.5,0,�k�k��,0,0,0,����,0,0.5,0,,,,,,,,
�k�C���X�y�[�X�|�[�g(�����),2023/07/01 02:00:00,17.0,0,100,2,993.0,0,995.8,0,3.0,0,�k�k��,0,4.7,0,�k��,0,0,0,����,0,0.0,0,,,,,,,,
�k�C���X�y�[�X�|�[�g(�����),2023/07/01 03:00:00,17.2,0,100,2,992.4,0,995.2,0,3.5,0,�k��,0,5.4,0,�k�k��,0,0,0,�Ȃ�,0,0.5,0,,,,,,,,
�k�C���X�y�[�X�|�[�g(�����),2023/07/01 04:00:00,17.5,0,100,2,992.9,0,995.7,0,3.7,0,�k��,0,5.9,0,�k��,0,0,0,����,0,0.0,0,,,,,,,,
�k�C���X�y�[�X�|�[�g(�����),2023/07/01 05:00:00,18.0,0,100,2,993.3,0,996.1,0,2.4,0,�k��,0,5.1,0,�k��,0,46,0,����,0,0.0,0,,,,,,,,
�k�C���X�y�[�X�|�[�g(�����),2023/07/01 06:00:00,18.3,0,100,0,993.8,0,996.6,0,3.4,0,�k��,0,5.5,0,�k��,0,70,0,�Ȃ�,0,0.0,0,,,,,,,,
�k�C���X�y�[�X�|�[�g(�����),2023/07/01 07:00:00,19.2,0,100,0,994.0,0,996.8,0,4.0,0,�k��,0,7.4,0,�k�k��,0,197,0,�Ȃ�,0,0.0,0,,,,,,,,
�k�C���X�y�[�X�|�[�g(�����),2023/07/01 08:00:00,21.0,0,92,0,993.8,0,996.6,0,3.9,0,�k��,0,6.4,0,�k��,0,384,0,�Ȃ�,0,0.0,0,,,,,,,,
�k�C���X�y�[�X�|�[�g(�����),2023/07/01 09:00:00,22.3,0,79,0,994.3,0,997.0,0,2.2,0,�k��,0,6.2,0,�k�k��,0,615,0,�Ȃ�,0,0.0,0,,,,,,,,
�k�C���X�y�[�X�|�[�g(�����),2023/07/01 10:00:00,19.0,0,91,0,994.5,0,997.3,0,4.3,0,��,0,6.3,0,��,0,846,0,�Ȃ�,0,0.0,0,,,,,,,,
�k�C���X�y�[�X�|�[�g(�����),2023/07/01 11:00:00,18.6,0,96,0,994.9,0,997.7,0,4.4,0,��,0,7.0,0,��쐼,0,1016,0,�Ȃ�,0,0.0,0,,,,,,,,
�k�C���X�y�[�X�|�[�g(�����),2023/07/01 12:00:00,19.5,0,93,0,995.0,0,997.8,0,4.7,0,��,0,6.7,0,��쐼,0,1030,0,�Ȃ�,0,0.0,0,,,,,,,,
�k�C���X�y�[�X�|�[�g(�����),2023/07/01 13:00:00,21.1,0,86,0,995.1,0,997.9,0,2.9,0,��쓌,0,6.5,0,��,0,975,0,�Ȃ�,0,0.0,0,,,,,,,,
�k�C���X�y�[�X�|�[�g(�����),2023/07/01 14:00:00,21.5,0,83,0,995.4,0,998.2,0,2.7,0,�쓌,0,4.4,0,��쓌,0,580,0,�Ȃ�,0,0.0,0,,,,,,,,
�k�C���X�y�[�X�|�[�g(�����),2023/07/01 15:00:00,19.7,0,84,0,995.9,0,998.7,0,3.6,0,��,0,5.3,0,��,0,525,0,�Ȃ�,0,0.0,0,,,,,,,,
�k�C���X�y�[�X�|�[�g(�����),2023/07/01 16:00:00,20.0,0,85,0,997.0,0,999.8,0,2.9,0,���k��,0,6.2,0,��,0,450,0,�Ȃ�,0,0.0,0,,,,,,,,
�k�C���X�y�[�X�|�[�g(�����),2023/07/01 17:00:00,19.4,0,85,0,997.7,0,1000.5,0,3.3,0,���k��,0,5.7,0,���k��,0,166,0,�Ȃ�,0,0.0,0,,,,,,,,
�k�C���X�y�[�X�|�[�g(�����),2023/07/01 18:00:00,18.5,0,84,0,998.5,0,1001.3,0,1.8,0,�k��,0,4.2,0,��,0,74,0,�Ȃ�,0,0.0,0,,,,,,,,
�k�C���X�y�[�X�|�[�g(�����),2023/07/01 19:00:00,17.8,0,88,0,999.3,0,1002.1,0,1.4,0,���k��,0,3.8,0,�k��,0,24,0,�Ȃ�,0,0.0,0,,,,,,,,
�k�C���X�y�[�X�|�[�g(�����),2023/07/01 20:00:00,18.0,0,88,0,1000.3,0,1003.1,0,0.4,0,�k��,0,3.2,0,��,0,0,0,�Ȃ�,0,0.0,0,,,,,,,,
�k�C���X�y�[�X�|�[�g(�����),2023/07/01 21:00:00,17.4,0,84,0,1001.1,0,1003.9,0,1.1,0,���k��,0,2.2,0,���k��,0,0,0,����,0,0.0,0,,,,,,,,
�k�C���X�y�[�X�|�[�g(�����),2023/07/01 22:00:00,16.6,0,86,0,1001.4,0,1004.2,0,1.4,0,��,0,3.0,0,��,0,0,0,�Ȃ�,0,0.0,0,,,,,,,,
�k�C���X�y�[�X�|�[�g(�����),2023/07/01 23:00:00,16.3,0,90,0,1001.7,0,1004.5,0,1.0,0,�쐼,0,1.5,0,�쐼,0,0,0,����,0,0.0,0,,,,,,,,
�k�C���X�y�[�X�|�[�g(�����),2023/07/02 00:00:00,15.6,0,88,0,1001.8,0,1004.6,0,1.8,0,��쓌,0,3.3,0,��쓌,0,0,0,����,0,0.0,0,,,,,,,,
�k�C���X�y�[�X�|�[�g(�����),2023/07/02 01:00:00,15.7,0,89,0,1002.0,0,1004.8,0,1.0,0,�쐼,0,3.0,0,��쓌,0,0,0,����,0,0.0,0,,,,,,,,
�k�C���X�y�[�X�|�[�g(�����),2023/07/02 02:00:00,15.5,0,92,0,1002.2,0,1005.0,0,0.7,0,�k��,0,1.2,0,�k�k��,0,0,0,�Ȃ�,0,0.0,0,,,,,,,,
�k�C���X�y�[�X�|�[�g(�����),2023/07/02 03:00:00,15.4,0,93,0,1002.8,0,1005.6,0,0.5,0,�k�k��,0,2.2,0,�k�k��,0,0,0,����,0,0.0,0,,,,,,,,
�k�C���X�y�[�X�|�[�g(�����),2023/07/02 04:00:00,15.3,0,95,0,1003.1,0,1005.9,0,0.6,0,�k�k��,0,2.5,0,�k�k��,0,0,0,����,0,0.0,0,,,,,,,,
�k�C���X�y�[�X�|�[�g(�����),2023/07/02 05:00:00,15.1,0,93,0,1003.9,0,1006.7,0,1.1,0,�k,0,3.5,0,�k�k��,0,4,0,����,0,0.0,0,,,,,,,,
�k�C���X�y�[�X�|�[�g(�����),2023/07/02 06:00:00,14.6,0,98,0,1004.4,0,1007.3,0,1.3,0,�k��,0,3.0,0,�k�k��,0,44,0,����,0,0.0,0,,,,,,,,
�k�C���X�y�[�X�|�[�g(�����),2023/07/02 07:00:00,15.3,0,90,0,1005.0,0,1007.8,0,0.8,0,�k�k��,0,2.3,0,�k�k��,0,101,0,����,0,0.0,0,,,,,,,,
�k�C���X�y�[�X�|�[�g(�����),2023/07/02 08:00:00,15.6,0,84,0,1005.1,0,1007.9,0,2.3,0,��,0,3.9,0,��,0,282,0,�Ȃ�,0,0.0,0,,,,,,,,
�k�C���X�y�[�X�|�[�g(�����),2023/07/02 09:00:00,16.6,0,80,0,1005.3,0,1008.1,0,2.1,0,���쓌,0,3.5,0,���쓌,0,405,0,�Ȃ�,0,0.0,0,,,,,,,,
�k�C���X�y�[�X�|�[�g(�����),2023/07/02 10:00:00,17.5,0,80,0,1005.5,0,1008.3,0,3.4,0,�쓌,0,5.0,0,��쓌,0,753,0,�Ȃ�,0,0.0,0,,,,,,,,
�k�C���X�y�[�X�|�[�g(�����),2023/07/02 11:00:00,17.8,0,77,0,1005.5,0,1008.3,0,2.8,0,��,0,5.4,0,��쐼,0,757,0,�Ȃ�,0,0.0,0,,,,,,,,
�k�C���X�y�[�X�|�[�g(�����),2023/07/02 12:00:00,18.5,0,77,0,1005.2,0,1008.0,0,3.4,0,��쓌,0,4.7,0,��쓌,0,1072,0,�Ȃ�,0,0.0,0,,,,,,,,
�k�C���X�y�[�X�|�[�g(�����),2023/07/02 13:00:00,18.1,0,76,0,1005.4,0,1008.2,0,3.9,0,��,0,5.6,0,��쓌,0,682,0,�Ȃ�,0,0.0,0,,,,,,,,
�k�C���X�y�[�X�|�[�g(�����),2023/07/02 14:00:00,17.5,0,80,0,1005.0,0,1007.8,0,3.9,0,��,0,6.1,0,��,0,790,0,�Ȃ�,0,0.0,0,,,,,,,,
�k�C���X�y�[�X�|�[�g(�����),2023/07/02 15:00:00,17.3,0,79,0,1005.0,0,1007.8,0,4.0,0,��쐼,0,7.4,0,�쐼,0,656,0,�Ȃ�,0,0.0,0,,,,,,,,
�k�C���X�y�[�X�|�[�g(�����),2023/07/02 16:00:00,16.8,0,85,0,1005.3,0,1008.1,0,4.6,0,��쐼,0,7.5,0,��,0,362,0,�Ȃ�,0,0.0,0,,,,,,,,
�k�C���X�y�[�X�|�[�g(�����),2023/07/02 17:00:00,16.1,0,88,0,1005.5,0,1008.3,0,4.1,0,��쐼,0,7.6,0,��,0,202,0,�Ȃ�,0,0.0,0,,,,,,,,
�k�C���X�y�[�X�|�[�g(�����),2023/07/02 18:00:00,15.8,0,90,0,1005.6,0,1008.4,0,3.6,0,��쐼,0,6.9,0,��,0,69,0,�Ȃ�,0,0.0,0,,,,,,,,
�k�C���X�y�[�X�|�[�g(�����),2023/07/02 19:00:00,15.2,0,96,0,1006.0,0,1008.9,0,2.1,0,��,0,5.2,0,��쐼,0,14,0,�Ȃ�,0,0.0,0,,,,,,,,
�k�C���X�y�[�X�|�[�g(�����),2023/07/02 20:00:00,14.8,0,100,0,1006.3,0,1009.2,0,1.6,0,��,0,3.2,0,��,0,0,0,����,0,0.0,0,,,,,,,,
�k�C���X�y�[�X�|�[�g(�����),2023/07/02 21:00:00,14.8,0,100,0,1006.6,0,1009.5,0,0.3,0,��쓌,0,1.9,0,��쐼,0,0,0,�Ȃ�,0,0.0,0,,,,,,,,
�k�C���X�y�[�X�|�[�g(�����),2023/07/02 22:00:00,15.2,0,100,0,1006.4,0,1009.3,0,1.3,0,���k��,0,2.6,0,���k��,0,0,0,�Ȃ�,0,0.0,0,,,,,,,,
�k�C���X�y�[�X�|�[�g(�����),2023/07/02 23:00:00,15.2,0,100,0,1006.1,0,1009.0,0,1.0,0,�k��,0,3.3,0,��,0,0,0,����,0,0.0,0,,,,,,,,
�k�C���X�y�[�X�|�[�g(�����),2023/07/03 00:00:00,15.2,0,100,0,1006.1,0,1009.0,0,0.8,0,�k�k��,0,2.9,0,�k�k��,0,0,0,����,0,0.0,0,,,,,,,,
�k�C���X�y�[�X�|�[�g(�����),2023/07/03 01:00:00,15.0,0,100,0,1005.8,0,1008.7,0,1.0,0,�k,0,4.8,0,�k�k��,0,0,0,����,0,0.0,0,,,,,,,,
�k�C���X�y�[�X�|�[�g(�����),2023/07/03 02:00:00,15.4,0,100,0,1005.6,0,1008.4,0,1.6,0,�k�k��,0,3.6,0,�k�k��,0,0,0,����,0,0.0,0,,,,,,,,
�k�C���X�y�[�X�|�[�g(�����),2023/07/03 03:00:00,15.5,0,100,0,1005.8,0,1008.6,0,2.0,0,�k��,0,3.4,0,�k�k��,0,0,0,����,0,0.0,0,,,,,,,,
�k�C���X�y�[�X�|�[�g(�����),2023/07/03 04:00:00,15.4,0,100,0,1005.8,0,1008.6,0,3.0,0,�k�k��,0,4.2,0,�k�k��,0,0,0,����,0,0.0,0,,,,,,,,
�k�C���X�y�[�X�|�[�g(�����),2023/07/03 05:00:00,15.6,0,100,0,1006.2,0,1009.0,0,1.1,0,�k�k��,0,3.4,0,�k�k��,0,18,0,����,0,0.0,0,,,,,,,,
�k�C���X�y�[�X�|�[�g(�����),2023/07/03 06:00:00,16.1,0,100,0,1006.2,0,1009.0,0,1.9,0,�k�k��,0,5.2,0,�k�k��,0,80,0,����,0,0.0,0,,,,,,,,
�k�C���X�y�[�X�|�[�g(�����),2023/07/03 07:00:00,16.6,0,99,0,1006.0,0,1008.8,0,1.3,0,�k�k��,0,4.0,0,�k�k��,0,162,0,�Ȃ�,0,0.0,0,,,,,,,,
�k�C���X�y�[�X�|�[�g(�����),2023/07/03 08:00:00,17.4,0,95,0,1006.0,0,1008.8,0,1.2,0,�k,0,4.9,0,�k�k��,0,224,0,�Ȃ�,0,0.0,0,,,,,,,,
�k�C���X�y�[�X�|�[�g(�����),2023/07/03 09:00:00,16.7,0,98,0,1005.8,0,1008.6,0,3.7,0,��,0,4.8,0,��,0,314,0,����,0,0.0,0,,,,,,,,
�k�C���X�y�[�X�|�[�g(�����),2023/07/03 10:00:00,16.7,0,95,0,1005.8,0,1008.6,0,4.3,0,��,0,5.9,0,��,0,570,0,����,0,0.0,0,,,,,,,,
�k�C���X�y�[�X�|�[�g(�����),2023/07/03 11:00:00,17.4,0,92,0,1005.7,0,1008.5,0,2.4,0,���쓌,0,5.3,0,��,0,547,0,�Ȃ�,0,0.0,0,,,,,,,,
�k�C���X�y�[�X�|�[�g(�����),2023/07/03 12:00:00,16.8,0,88,0,1005.1,0,1007.9,0,3.5,0,��,0,5.6,0,��,0,956,0,�Ȃ�,0,0.0,0,,,,,,,,
�k�C���X�y�[�X�|�[�g(�����),2023/07/03 13:00:00,17.3,0,89,0,1005.0,0,1007.8,0,2.5,0,���쓌,0,5.2,0,�쓌,0,727,0,�Ȃ�,0,0.0,0,,,,,,,,
�k�C���X�y�[�X�|�[�g(�����),2023/07/03 14:00:00,17.2,0,88,0,1004.6,0,1007.4,0,2.4,0,���쓌,0,4.9,0,��,0,799,0,�Ȃ�,0,0.0,0,,,,,,,,
�k�C���X�y�[�X�|�[�g(�����),2023/07/03 15:00:00,17.0,0,89,0,1004.2,0,1007.0,0,2.5,0,�쓌,0,3.6,0,���쓌,0,537,0,����,0,0.0,0,,,,,,,,
�k�C���X�y�[�X�|�[�g(�����),2023/07/03 16:00:00,16.9,0,92,0,1003.5,0,1006.3,0,2.9,0,��,0,5.3,0,��,0,529,0,����,0,0.0,0,,,,,,,,
�k�C���X�y�[�X�|�[�g(�����),2023/07/03 17:00:00,15.8,0,100,0,1003.6,0,1006.4,0,2.2,0,���k��,0,4.7,0,��,0,160,0,����,0,0.0,0,,,,,,,,
�k�C���X�y�[�X�|�[�g(�����),2023/07/03 18:00:00,15.2,0,100,0,1003.8,0,1006.6,0,2.2,0,�k��,0,4.8,0,���k��,0,38,0,����,0,0.0,0,,,,,,,,
�k�C���X�y�[�X�|�[�g(�����),2023/07/03 19:00:00,15.1,0,100,0,1004.3,0,1007.1,0,1.9,0,�k��,0,4.8,0,�k��,0,5,0,�Ȃ�,0,0.0,0,,,,,,,,
�k�C���X�y�[�X�|�[�g(�����),2023/07/03 20:00:00,14.8,0,100,0,1004.7,0,1007.6,0,1.4,0,�k��,0,4.9,0,�k�k��,0,0,0,����,0,0.0,0,,,,,,,,
�k�C���X�y�[�X�|�[�g(�����),2023/07/03 21:00:00,14.7,0,100,0,1005.0,0,1007.9,0,2.2,0,�k�k��,0,4.2,0,�k�k��,0,0,0,�Ȃ�,0,0.0,0,,,,,,,,
�k�C���X�y�[�X�|�[�g(�����),2023/07/03 22:00:00,15.2,0,100,0,1005.4,0,1008.2,0,1.0,0,�k�k��,0,3.6,0,�k�k��,0,0,0,�Ȃ�,0,0.0,0,,,,,,,,
�k�C���X�y�[�X�|�[�g(�����),2023/07/03 23:00:00,15.3,0,100,0,1004.9,0,1007.7,0,1.8,0,�k�k��,0,2.5,0,�k�k��,0,0,0,�Ȃ�,0,0.0,0,,,,,,,,
�k�C���X�y�[�X�|�[�g(�����),2023/07/04 00:00:00,15.7,0,100,0,1004.7,0,1007.5,0,2.0,0,�k��,0,2.8,0,�k�k��,0,0,0,�Ȃ�,0,0.0,0,,,,,,,,
�k�C���X�y�[�X�|�[�g(�����),2023/07/04 01:00:00,15.9,0,100,0,1004.1,0,1006.9,0,1.4,0,�k��,0,2.6,0,�k�k��,0,0,0,�Ȃ�,0,0.0,0,,,,,,,,
�k�C���X�y�[�X�|�[�g(�����),2023/07/04 02:00:00,16.4,0,100,0,1004.2,0,1007.0,0,0.7,0,���k��,0,2.3,0,���k��,0,0,0,�Ȃ�,0,0.0,0,,,,,,,,
�k�C���X�y�[�X�|�[�g(�����),2023/07/04 03:00:00,16.5,0,100,0,1004.3,0,1007.1,0,1.1,0,���k��,0,1.9,0,���k��,0,0,0,����,0,0.0,0,,,,,,,,
�k�C���X�y�[�X�|�[�g(�����),2023/07/04 04:00:00,16.7,0,100,0,1004.9,0,1007.7,0,0.7,0,�쐼,0,1.4,0,��,0,0,0,����,0,0.0,0,,,,,,,,
�k�C���X�y�[�X�|�[�g(�����),2023/07/04 05:00:00,16.9,0,100,0,1005.2,0,1008.0,0,0.4,0,���쐼,0,1.4,0,�쐼,0,9,0,����,0,0.0,0,,,,,,,,
�k�C���X�y�[�X�|�[�g(�����),2023/07/04 06:00:00,16.2,0,100,0,1005.1,0,1007.9,0,2.4,0,��,0,4.0,0,��,0,37,0,����,0,0.0,0,,,,,,,,
�k�C���X�y�[�X�|�[�g(�����),2023/07/04 07:00:00,16.4,0,100,0,1005.2,0,1008.0,0,2.3,0,��,0,3.2,0,��,0,110,0,����,0,0.0,0,,,,,,,,
�k�C���X�y�[�X�|�[�g(�����),2023/07/04 08:00:00,18.8,0,92,0,1004.7,0,1007.5,0,1.2,0,�k�k��,0,3.4,0,�k�k��,0,361,0,�Ȃ�,0,0.0,0,,,,,,,,
�k�C���X�y�[�X�|�[�g(�����),2023/07/04 09:00:00,18.4,0,88,0,1004.3,0,1007.1,0,3.4,0,��,0,5.1,0,��,0,574,0,����,0,0.0,0,,,,,,,,
�k�C���X�y�[�X�|�[�g(�����),2023/07/04 10:00:00,18.8,0,85,0,1004.5,0,1007.3,0,3.1,0,���쓌,0,5.4,0,��,0,760,0,�Ȃ�,0,0.0,0,,,,,,,,
�k�C���X�y�[�X�|�[�g(�����),2023/07/04 11:00:00,17.9,0,86,0,1004.9,0,1007.7,0,5.2,0,���쓌,0,7.3,0,���쓌,0,1007,0,�Ȃ�,0,0.0,0,,,,,,,,
�k�C���X�y�[�X�|�[�g(�����),2023/07/04 12:00:00,16.9,0,91,0,1005.7,0,1008.5,0,3.8,0,��쓌,0,7.4,0,���쓌,0,664,0,����,0,0.0,0,,,,,,,,
�k�C���X�y�[�X�|�[�g(�����),2023/07/04 13:00:00,17.1,0,96,0,1005.7,0,1008.5,0,3.9,0,��,0,6.3,0,��쓌,0,461,0,����,0,0.0,0,,,,,,,,
�k�C���X�y�[�X�|�[�g(�����),2023/07/04 14:00:00,16.9,0,97,0,1005.2,0,1008.0,0,2.8,0,��,0,5.6,0,��쓌,0,437,0,����,0,0.0,0,,,,,,,,
�k�C���X�y�[�X�|�[�g(�����),2023/07/04 15:00:00,19.5,0,84,0,1004.5,0,1007.3,0,1.5,0,���쓌,0,4.8,0,��쐼,0,623,0,�Ȃ�,0,0.0,0,,,,,,,,
�k�C���X�y�[�X�|�[�g(�����),2023/07/04 16:00:00,16.3,0,100,0,1004.8,0,1007.6,0,3.1,0,�쓌,0,6.8,0,�쓌,0,464,0,����,0,0.0,0,,,,,,,,
�k�C���X�y�[�X�|�[�g(�����),2023/07/04 17:00:00,16.0,0,100,0,1004.6,0,1007.4,0,1.7,0,��쓌,0,4.2,0,���쓌,0,238,0,����,0,0.0,0,,,,,,,,
�k�C���X�y�[�X�|�[�g(�����),2023/07/04 18:00:00,15.9,0,100,0,1004.2,0,1007.0,0,1.1,0,�k�k��,0,3.3,0,���쓌,0,83,0,����,0,0.0,0,,,,,,,,
�k�C���X�y�[�X�|�[�g(�����),2023/07/04 19:00:00,15.5,0,100,0,1004.6,0,1007.4,0,1.3,0,��,0,3.2,0,���쓌,0,17,0,�Ȃ�,0,0.0,0,,,,,,,,
�k�C���X�y�[�X�|�[�g(�����),2023/07/04 20:00:00,15.2,0,100,0,1005.2,0,1008.0,0,2.1,0,��쓌,0,3.2,0,��쓌,0,0,0,�Ȃ�,0,0.0,0,,,,,,,,
�k�C���X�y�[�X�|�[�g(�����),2023/07/04 21:00:00,15.1,0,100,0,1005.3,0,1008.1,0,1.3,0,��쐼,0,2.7,0,�쐼,0,0,0,�Ȃ�,0,0.0,0,,,,,,,,
�k�C���X�y�[�X�|�[�g(�����),2023/07/04 22:00:00,15.0,0,100,0,1005.5,0,1008.4,0,1.7,0,�쓌,0,3.3,0,�쓌,0,0,0,�Ȃ�,0,0.0,0,,,,,,,,
�k�C���X�y�[�X�|�[�g(�����),2023/07/04 23:00:00,15.1,0,100,2,1005.3,0,1008.1,0,0.5,0,��,0,2.9,0,�쓌,0,0,0,�Ȃ�,0,0.0,0,,,,,,,,
�k�C���X�y�[�X�|�[�g(�����),2023/07/05 00:00:00,15.2,0,100,2,1004.6,0,1007.4,0,1.2,0,�k�k��,0,2.3,0,�k�k��,0,0,0,�Ȃ�,0,0.0,0,,,,,,,,
�k�C���X�y�[�X�|�[�g(�����),2023/07/05 01:00:00,15.2,0,100,2,1004.3,0,1007.1,0,0.3,0,�k�k��,0,3.0,0,���k��,0,0,0,�Ȃ�,0,0.0,0,,,,,,,,
�k�C���X�y�[�X�|�[�g(�����),2023/07/05 02:00:00,15.1,0,100,2,1004.0,0,1006.8,0,0.7,0,�k,0,2.7,0,���k��,0,0,0,�Ȃ�,0,0.0,0,,,,,,,,
�k�C���X�y�[�X�|�[�g(�����),2023/07/05 03:00:00,14.8,0,100,0,1003.4,0,1006.2,0,1.6,0,�k��,0,3.1,0,��,0,0,0,�Ȃ�,0,0.0,0,,,,,,,,
�k�C���X�y�[�X�|�[�g(�����),2023/07/05 04:00:00,14.6,0,100,0,1003.5,0,1006.3,0,1.1,0,�k�k��,0,2.6,0,�k�k��,0,0,0,�Ȃ�,0,0.0,0,,,,,,,,
�k�C���X�y�[�X�|�[�g(�����),2023/07/05 05:00:00,14.5,0,100,0,1003.7,0,1006.6,0,0.8,0,�k,0,2.1,0,�k�k��,0,10,0,�Ȃ�,0,0.0,0,,,,,,,,
�k�C���X�y�[�X�|�[�g(�����),2023/07/05 06:00:00,14.7,0,100,0,1003.4,0,1006.2,0,2.1,0,�k��,0,3.1,0,�k��,0,67,0,����,0,0.0,0,,,,,,,,
�k�C���X�y�[�X�|�[�g(�����),2023/07/05 07:00:00,15.5,0,100,0,1003.2,0,1006.0,0,0.8,0,�k�k��,0,3.1,0,�k��,0,153,0,����,0,0.0,0,,,,,,,,
�k�C���X�y�[�X�|�[�g(�����),2023/07/05 08:00:00,15.8,0,100,0,1002.9,0,1005.7,0,2.8,0,���쓌,0,4.3,0,��,0,225,0,�Ȃ�,0,0.0,0,,,,,,,,
�k�C���X�y�[�X�|�[�g(�����),2023/07/05 09:00:00,15.7,0,100,0,1002.8,0,1005.6,0,2.1,0,���쓌,0,4.2,0,��,0,268,0,�Ȃ�,0,0.0,0,,,,,,,,
�k�C���X�y�[�X�|�[�g(�����),2023/07/05 10:00:00,15.7,0,100,0,1002.5,0,1005.3,0,3.2,0,���쓌,0,5.1,0,���쓌,0,369,0,�Ȃ�,0,0.0,0,,,,,,,,
�k�C���X�y�[�X�|�[�g(�����),2023/07/05 11:00:00,15.3,0,100,0,1002.1,0,1004.9,0,3.7,0,�쓌,0,5.5,0,�쓌,0,499,0,����,0,0.0,0,,,,,,,,
�k�C���X�y�[�X�|�[�g(�����),2023/07/05 12:00:00,16.2,0,100,0,1001.6,0,1004.4,0,3.2,0,��쓌,0,5.8,0,�쓌,0,609,0,����,0,0.0,0,,,,,,,,
�k�C���X�y�[�X�|�[�g(�����),2023/07/05 13:00:00,16.5,0,100,0,1001.2,0,1004.0,0,3.4,0,��,0,5.4,0,��쓌,0,481,0,����,0,0.0,0,,,,,,,,
�k�C���X�y�[�X�|�[�g(�����),2023/07/05 14:00:00,16.3,0,99,0,1000.7,0,1003.5,0,3.3,0,��쓌,0,5.8,0,��,0,573,0,����,0,0.0,0,,,,,,,,
�k�C���X�y�[�X�|�[�g(�����),2023/07/05 15:00:00,17.1,0,100,0,1000.4,0,1003.2,0,3.1,0,�쓌,0,5.0,0,��쓌,0,599,0,����,0,0.0,0,,,,,,,,
�k�C���X�y�[�X�|�[�g(�����),2023/07/05 16:00:00,17.0,0,98,0,1000.1,0,1002.9,0,2.9,0,���쓌,0,5.3,0,��,0,502,0,����,0,0.0,0,,,,,,,,
�k�C���X�y�[�X�|�[�g(�����),2023/07/05 17:00:00,16.6,0,99,0,999.7,0,1002.5,0,2.5,0,���k��,0,5.0,0,��,0,282,0,�Ȃ�,0,0.0,0,,,,,,,,
�k�C���X�y�[�X�|�[�g(�����),2023/07/05 18:00:00,17.0,0,97,0,999.8,0,1002.6,0,2.4,0,�k�k��,0,5.2,0,�k�k��,0,166,0,�Ȃ�,0,0.0,0,,,,,,,,
�k�C���X�y�[�X�|�[�g(�����),2023/07/05 19:00:00,15.7,0,100,0,1000.3,0,1003.1,0,3.7,0,�k�k��,0,6.1,0,�k�k��,0,32,0,�Ȃ�,0,0.0,0,,,,,,,,
�k�C���X�y�[�X�|�[�g(�����),2023/07/05 20:00:00,15.2,0,100,0,1000.9,0,1003.7,0,1.5,0,�k�k��,0,6.4,0,�k�k��,0,0,0,�Ȃ�,0,0.0,0,,,,,,,,
�k�C���X�y�[�X�|�[�g(�����),2023/07/05 21:00:00,15.3,0,100,0,1001.6,0,1004.4,0,3.3,0,�k�k��,0,4.6,0,�k�k��,0,0,0,�Ȃ�,0,0.0,0,,,,,,,,
�k�C���X�y�[�X�|�[�g(�����),2023/07/05 22:00:00,15.2,0,100,0,1002.3,0,1005.1,0,1.5,0,�쐼,0,4.3,0,�k�k��,0,0,0,�Ȃ�,0,0.0,0,,,,,,,,
�k�C���X�y�[�X�|�[�g(�����),2023/07/05 23:00:00,15.6,0,100,0,1001.9,0,1004.7,0,4.5,0,��,0,7.9,0,��쓌,0,0,0,����,0,0.0,0,,,,,,,,
�k�C���X�y�[�X�|�[�g(�����),2023/07/06 00:00:00,15.7,0,100,0,1002.1,0,1004.9,0,3.7,0,��,0,8.4,0,��,0,0,0,����,0,0.0,0,,,,,,,,
�k�C���X�y�[�X�|�[�g(�����),2023/07/06 01:00:00,16.0,0,100,0,1001.8,0,1004.6,0,2.0,0,��,0,5.2,0,��,0,0,0,����,0,0.0,0,,,,,,,,
�k�C���X�y�[�X�|�[�g(�����),2023/07/06 02:00:00,15.7,0,100,0,1001.5,0,1004.3,0,0.5,0,��,0,2.9,0,�쓌,0,0,0,����,0,0.0,0,,,,,,,,
�k�C���X�y�[�X�|�[�g(�����),2023/07/06 03:00:00,15.7,0,100,0,1001.2,0,1004.0,0,0.5,0,�k��,0,1.6,0,�쐼,0,0,0,����,0,4.5,0,,,,,,,,
�k�C���X�y�[�X�|�[�g(�����),2023/07/06 04:00:00,15.3,0,100,0,1000.7,0,1003.5,0,1.1,0,���k��,0,2.7,0,���k��,0,0,0,����,0,4.5,0,,,,,,,,
�k�C���X�y�[�X�|�[�g(�����),2023/07/06 05:00:00,15.4,0,100,0,1000.4,0,1003.2,0,0.8,0,�k�k��,0,2.8,0,�k�k��,0,0,0,����,0,1.0,0,,,,,,,,
�k�C���X�y�[�X�|�[�g(�����),2023/07/06 06:00:00,15.6,0,100,2,999.9,0,1002.7,0,1.1,0,�k�k��,0,2.4,0,�k�k��,0,12,0,����,0,2.0,0,,,,,,,,
�k�C���X�y�[�X�|�[�g(�����),2023/07/06 07:00:00,15.7,0,100,0,999.9,0,1002.7,0,2.3,0,���k��,0,4.9,0,�k��,0,25,0,����,0,0.5,0,,,,,,,,
�k�C���X�y�[�X�|�[�g(�����),2023/07/06 08:00:00,15.5,0,100,0,998.8,0,1001.6,0,2.5,0,���k��,0,5.1,0,�k�k��,0,67,0,����,0,1.0,0,,,,,,,,
�k�C���X�y�[�X�|�[�g(�����),2023/07/06 09:00:00,16.2,0,100,2,997.8,0,1000.6,0,1.4,0,���쓌,0,5.3,0,���k��,0,114,0,����,0,0.5,0,,,,,,,,
�k�C���X�y�[�X�|�[�g(�����),2023/07/06 10:00:00,17.4,0,100,2,997.2,0,1000.0,0,0.8,0,���쓌,0,2.7,0,��,0,108,0,����,0,0.5,0,,,,,,,,
�k�C���X�y�[�X�|�[�g(�����),2023/07/06 11:00:00,19.0,0,100,0,996.3,0,999.1,0,5.1,0,��,0,9.5,0,��쓌,0,415,0,����,0,0.0,0,,,,,,,,
�k�C���X�y�[�X�|�[�g(�����),2023/07/06 12:00:00,20.2,0,98,0,996.4,0,999.2,0,2.4,0,�쓌,0,8.5,0,��,0,589,0,�Ȃ�,0,0.0,0,,,,,,,,
�k�C���X�y�[�X�|�[�g(�����),2023/07/06 13:00:00,21.9,0,88,0,996.2,0,998.9,0,3.0,0,��,0,5.5,0,��쐼,0,988,0,�Ȃ�,0,0.0,0,,,,,,,,
�k�C���X�y�[�X�|�[�g(�����),2023/07/06 14:00:00,21.5,0,79,0,995.4,0,998.2,0,5.1,0,�쓌,0,8.5,0,�쓌,0,927,0,�Ȃ�,0,0.0,0,,,,,,,,
�k�C���X�y�[�X�|�[�g(�����),2023/07/06 15:00:00,19.0,0,91,0,996.1,0,998.9,0,4.6,0,��,0,13.9,0,��,0,541,0,����,0,0.0,0,,,,,,,,
�k�C���X�y�[�X�|�[�g(�����),2023/07/06 16:00:00,22.1,0,87,0,995.5,0,998.2,0,1.9,0,��쐼,0,9.8,0,�쓌,0,298,0,����,0,0.0,0,,,,,,,,
�k�C���X�y�[�X�|�[�g(�����),2023/07/06 17:00:00,20.6,0,82,0,995.3,0,998.1,0,4.2,0,��,0,9.0,0,��,0,313,0,�Ȃ�,0,0.0,0,,,,,,,,
�k�C���X�y�[�X�|�[�g(�����),2023/07/06 18:00:00,21.1,0,85,0,994.9,0,997.7,0,5.3,0,��,0,8.3,0,��쓌,0,150,0,�Ȃ�,0,0.0,0,,,,,,,,
�k�C���X�y�[�X�|�[�g(�����),2023/07/06 19:00:00,20.8,0,86,0,994.8,0,997.6,0,5.6,0,��,0,10.9,0,��,0,26,0,�Ȃ�,0,0.0,0,,,,,,,,
�k�C���X�y�[�X�|�[�g(�����),2023/07/06 20:00:00,23.4,0,67,0,994.8,0,997.5,0,4.3,0,��쐼,0,10.5,0,��쐼,0,0,0,�Ȃ�,0,0.0,0,,,,,,,,
�k�C���X�y�[�X�|�[�g(�����),2023/07/06 21:00:00,20.9,0,66,0,995.4,0,998.2,0,3.7,0,��쓌,0,8.1,0,��,0,0,0,�Ȃ�,0,0.0,0,,,,,,,,
�k�C���X�y�[�X�|�[�g(�����),2023/07/06 22:00:00,20.6,0,75,0,995.8,0,998.6,0,4.1,0,��,0,8.3,0,��,0,0,0,�Ȃ�,0,0.0,0,,,,,,,,
�k�C���X�y�[�X�|�[�g(�����),2023/07/06 23:00:00,21.0,0,77,0,996.0,0,998.8,0,5.0,0,��쐼,0,9.3,0,��쐼,0,0,0,�Ȃ�,0,0.0,0,,,,,,,,
�k�C���X�y�[�X�|�[�g(�����),2023/07/07 00:00:00,20.5,0,81,0,996.6,0,999.4,0,4.6,0,��,0,8.4,0,��,0,0,0,�Ȃ�,0,0.0,0,,,,,,,,
�k�C���X�y�[�X�|�[�g(�����),2023/07/07 01:00:00,21.5,0,77,0,996.6,0,999.4,0,3.6,0,��,0,9.4,0,��쐼,0,0,0,�Ȃ�,0,0.0,0,,,,,,,,
�k�C���X�y�[�X�|�[�g(�����),2023/07/07 02:00:00,21.4,0,76,0,997.2,0,1000.0,0,4.1,0,�쐼,0,7.6,0,�쐼,0,0,0,�Ȃ�,0,0.0,0,,,,,,,,
�k�C���X�y�[�X�|�[�g(�����),2023/07/07 03:00:00,21.2,0,77,0,997.8,0,1000.6,0,3.5,0,��쐼,0,6.7,0,�쐼,0,0,0,�Ȃ�,0,0.0,0,,,,,,,,
�k�C���X�y�[�X�|�[�g(�����),2023/07/07 04:00:00,20.1,0,82,0,998.8,0,1001.6,0,2.2,0,��,0,5.7,0,�쐼,0,0,0,�Ȃ�,0,0.0,0,,,,,,,,
�k�C���X�y�[�X�|�[�g(�����),2023/07/07 05:00:00,20.5,0,83,0,999.4,0,1002.2,0,1.7,0,���쐼,0,3.7,0,���쐼,0,20,0,����,0,0.0,0,,,,,,,,
�k�C���X�y�[�X�|�[�g(�����),2023/07/07 06:00:00,22.0,0,75,0,1000.3,0,1003.1,0,1.8,0,���k��,0,3.1,0,��,0,90,0,����,0,0.0,0,,,,,,,,
�k�C���X�y�[�X�|�[�g(�����),2023/07/07 07:00:00,24.3,0,70,0,1000.7,0,1003.4,0,2.2,0,���k��,0,4.2,0,���k��,0,237,0,����,0,0.0,0,,,,,,,,
�k�C���X�y�[�X�|�[�g(�����),2023/07/07 08:00:00,24.9,0,67,0,1001.3,0,1004.0,0,2.0,0,��,0,2.9,0,��,0,434,0,�Ȃ�,0,0.0,0,,,,,,,,
�k�C���X�y�[�X�|�[�g(�����),2023/07/07 09:00:00,26.2,0,55,0,1001.5,0,1004.2,0,2.2,0,�k�k��,0,4.9,0,�k�k��,0,620,0,�Ȃ�,0,0.0,0,,,,,,,,
�k�C���X�y�[�X�|�[�g(�����),2023/07/07 10:00:00,23.1,0,67,0,1001.8,0,1004.6,0,2.4,0,��쓌,0,4.5,0,�쓌,0,567,0,�Ȃ�,0,0.0,0,,,,,,,,
�k�C���X�y�[�X�|�[�g(�����),2023/07/07 11:00:00,22.7,0,68,0,1002.1,0,1004.9,0,3.1,0,��,0,4.9,0,��,0,640,0,�Ȃ�,0,0.0,0,,,,,,,,
�k�C���X�y�[�X�|�[�g(�����),2023/07/07 12:00:00,25.3,0,61,0,1002.1,0,1004.8,0,3.1,0,�쓌,0,5.2,0,��쓌,0,946,0,�Ȃ�,0,0.0,0,,,,,,,,
�k�C���X�y�[�X�|�[�g(�����),2023/07/07 13:00:00,24.2,0,60,0,1002.2,0,1004.9,0,3.8,0,�쓌,0,5.2,0,�쓌,0,1004,0,�Ȃ�,0,0.0,0,,,,,,,,
�k�C���X�y�[�X�|�[�g(�����),2023/07/07 14:00:00,25.1,0,59,0,1002.2,0,1004.9,0,2.9,0,�쓌,0,5.4,0,��쓌,0,789,0,�Ȃ�,0,0.0,0,,,,,,,,
�k�C���X�y�[�X�|�[�g(�����),2023/07/07 15:00:00,24.3,0,63,0,1002.2,0,1004.9,0,1.5,0,�쓌,0,4.5,0,�쓌,0,474,0,�Ȃ�,0,0.0,0,,,,,,,,
�k�C���X�y�[�X�|�[�g(�����),2023/07/07 16:00:00,24.5,0,67,0,1003.3,0,1006.0,0,5.0,0,�k�k��,0,9.1,0,�k�k��,0,261,0,�Ȃ�,0,0.0,0,,,,,,,,
�k�C���X�y�[�X�|�[�g(�����),2023/07/07 17:00:00,25.6,0,70,0,1002.4,0,1005.1,0,0.5,0,���k��,0,7.7,0,�k�k��,0,207,0,����,0,0.0,0,,,,,,,,
�k�C���X�y�[�X�|�[�g(�����),2023/07/07 18:00:00,21.2,0,74,0,1003.3,0,1006.1,0,1.4,0,�쓌,0,4.0,0,��쓌,0,144,0,����,0,0.0,0,,,,,,,,
�k�C���X�y�[�X�|�[�g(�����),2023/07/07 19:00:00,21.5,0,83,0,1003.5,0,1006.3,0,0.6,0,��,0,4.1,0,���k��,0,30,0,����,0,0.0,0,,,,,,,,
�k�C���X�y�[�X�|�[�g(�����),2023/07/07 20:00:00,20.3,0,89,0,1003.8,0,1006.6,0,1.0,0,�쓌,0,2.7,0,�k�k��,0,0,0,����,0,0.0,0,,,,,,,,
�k�C���X�y�[�X�|�[�g(�����),2023/07/07 21:00:00,19.4,0,91,0,1004.2,0,1007.0,0,2.1,0,�k��,0,4.0,0,���k��,0,0,0,����,0,0.0,0,,,,,,,,
�k�C���X�y�[�X�|�[�g(�����),2023/07/07 22:00:00,17.9,0,92,0,1004.6,0,1007.4,0,1.4,0,�k�k��,0,4.8,0,�k��,0,0,0,�Ȃ�,0,0.0,0,,,,,,,,
�k�C���X�y�[�X�|�[�g(�����),2023/07/07 23:00:00,17.3,0,96,0,1004.7,0,1007.5,0,1.8,0,�k�k��,0,4.4,0,�k�k��,0,0,0,�Ȃ�,0,0.0,0,,,,,,,,
�k�C���X�y�[�X�|�[�g(�����),2023/07/08 00:00:00,17.0,0,98,0,1004.9,0,1007.7,0,0.5,0,�k�k��,0,3.2,0,�k��,0,0,0,�Ȃ�,0,0.0,0,,,,,,,,
�k�C���X�y�[�X�|�[�g(�����),2023/07/08 01:00:00,16.9,0,100,0,1004.8,0,1007.6,0,0.4,0,�k�k��,0,2.5,0,�k�k��,0,0,0,�Ȃ�,0,0.0,0,,,,,,,,
�k�C���X�y�[�X�|�[�g(�����),2023/07/08 02:00:00,16.8,0,100,0,1004.8,0,1007.6,0,1.1,0,�k��,0,2.1,0,���k��,0,0,0,�Ȃ�,0,0.0,0,,,,,,,,
�k�C���X�y�[�X�|�[�g(�����),2023/07/08 03:00:00,16.4,0,100,0,1004.7,0,1007.5,0,0.8,0,�k�k��,0,2.9,0,�k�k��,0,0,0,�Ȃ�,0,0.0,0,,,,,,,,
�k�C���X�y�[�X�|�[�g(�����),2023/07/08 04:00:00,16.3,0,100,0,1005.0,0,1007.8,0,0.9,0,��,0,2.1,0,���k��,0,0,0,�Ȃ�,0,0.0,0,,,,,,,,
�k�C���X�y�[�X�|�[�g(�����),2023/07/08 05:00:00,16.7,0,100,0,1005.1,0,1007.9,0,0.5,0,�k�k��,0,1.3,0,�k�k��,0,30,0,�Ȃ�,0,0.0,0,,,,,,,,
�k�C���X�y�[�X�|�[�g(�����),2023/07/08 06:00:00,17.7,0,100,0,1005.3,0,1008.1,0,0.6,0,�k�k��,0,1.4,0,�k�k��,0,78,0,�Ȃ�,0,0.0,0,,,,,,,,
�k�C���X�y�[�X�|�[�g(�����),2023/07/08 07:00:00,18.6,0,100,0,1005.1,0,1007.9,0,1.3,0,�k�k��,0,2.7,0,�k��,0,137,0,�Ȃ�,0,0.0,0,,,,,,,,
�k�C���X�y�[�X�|�[�g(�����),2023/07/08 08:00:00,19.1,0,100,0,1005.2,0,1008.0,0,0.9,0,�k,0,3.1,0,�k�k��,0,141,0,����,0,0.0,0,,,,,,,,
�k�C���X�y�[�X�|�[�g(�����),2023/07/08 09:00:00,20.6,0,91,0,1004.7,0,1007.5,0,1.4,0,�k�k��,0,3.3,0,�k�k��,0,247,0,�Ȃ�,0,0.0,0,,,,,,,,
�k�C���X�y�[�X�|�[�g(�����),2023/07/08 10:00:00,21.0,0,88,0,1004.6,0,1007.4,0,1.9,0,��,0,3.8,0,��,0,450,0,�Ȃ�,0,0.0,0,,,,,,,,
�k�C���X�y�[�X�|�[�g(�����),2023/07/08 11:00:00,20.8,0,81,0,1004.3,0,1007.1,0,3.9,0,��,0,5.6,0,��,0,882,0,�Ȃ�,0,0.0,0,,,,,,,,
�k�C���X�y�[�X�|�[�g(�����),2023/07/08 12:00:00,18.4,0,86,0,1004.0,0,1006.8,0,3.2,0,��쓌,0,5.3,0,���쓌,0,752,0,�Ȃ�,0,0.0,0,,,,,,,,
�k�C���X�y�[�X�|�[�g(�����),2023/07/08 13:00:00,19.6,0,83,0,1003.4,0,1006.2,0,2.8,0,�쓌,0,5.0,0,��쓌,0,870,0,�Ȃ�,0,0.0,0,,,,,,,,